CZ-2C R/B, 40287

Orbit data source: Space-Track

CZ-2C R/B, 40287 is space debris in SSO originally from a launch on Mon, 27 Oct 2014 UTC launched from the Jiuquan Satellite Launch Center, China (JSC). Debris objects in space refer to the collection of defunct objects orbiting the Earth. Examples of debris include non-operational satellites, rocket bodies, and fragments generated from explosions, collisions, or faulty payload assembly.

Loading next visibility...
Identifier
40287, 2014-066B
Orbit
SSO
Country
Flag of CNCN / PRC
Related business
Manufacturer
CALT
Mission
Spacecraft
Bus & Motor
CZ-2 STAGE 2, Unknown motor
Mass
~3,800 kg wet, ~3,800 kg dry
Launch date (UTC)
2014-10-27 (11 years ago)
Launch vehicle
Unknown
Launch site
Jiuquan Satellite Launch Center, China (JSC)
Object type
Payload
Rocket body
Debris
Shape & HBR
Cyl, 4.2 m
Radar Cross Section
26.048 m², Large (>1 m²)

Expand to show TLE details & history
Last TLE update: 12 hours ago

TLE from 12 hours ago
0 CZ-2C R/B
1 40287U 14066B   25351.66203820  .00000548  00000-0  10468-3 0  9990
2 40287  97.7404  17.0649 0009047 144.6388 215.5419 14.67433677595728
Epoch: 2025-12-17T15:53Z
TLE epoch observation values (Epoch: 2025-12-17T15:53:20.100Z)
Latitude
-0.00003°
Longitude
52.20247°
Altitude
677.473 km
Speed
7.515 km/s
True Right ascension
01h 08m 15s
True Declination
0° 00' 00"
Sunlit
Object was in daylight at epoch
Visualization orbit readout
Latitude
Unknown
Longitude
Unknown
Altitude
Unknown
Speed
Unknown
Apparent Right ascension
Unknown
Apparent Declination
Unknown
Sunlit
N/A
Visualization observer readout
Local Sidereal Time
02:28:55
Azimuth
Unknown
Elevation
Unknown
Doppler factor
Unknown
Orbital elements
Apogee altitude
672.696 km
Perigee altitude
659.95 km
Semi-major axis
7,044.46 km
Eccentricity
0.0009
Inclination
97.7404°
RAAN
17.0649°
Arg. of periapsis
144.6388°
True anomaly
215.48169°
Mean anomaly
215.5419°
Eccentric anomaly
215.51179°
Mean motion
3.67089 °/min
Orbital period
98.07 mins
BSTAR
0.00010468
Loading maneuver chart data...
Computing Atmospheric mass density...
Loading historical data...
Loading historical data...
Loading historical data...
Loading historical data...
Loading historical data...
Loading historical data...
Loading historical data...
Other satellites on launch #66 in the year 2014 (2014-10-27 UTC)

Documentation

Showing up to 5 results
|